TimeEST,TemperatureF,Dew PointF,Humidity,Sea Level PressureIn,VisibilityMPH,Wind Direction,Wind SpeedMPH,Gust SpeedMPH,PrecipitationIn,Events,Conditions,WindDirDegrees,DateUTC
12:20 AM,37.4,33.8,87,29.51,10.0,NNW,16.1,-,N/A,,Overcast,330,2013-12-30 05:20:00
12:39 AM,37.4,33.8,87,29.53,10.0,NW,13.8,-,N/A,,Overcast,320,2013-12-30 05:39:00
12:54 AM,37.0,33.1,86,29.55,10.0,NW,11.5,-,N/A,,Overcast,310,2013-12-30 05:54:00
1:30 AM,37.4,33.8,87,29.59,10.0,WNW,12.7,-,N/A,,Mostly Cloudy,290,2013-12-30 06:30:00
1:54 AM,37.0,33.1,86,29.61,10.0,WNW,11.5,-,N/A,,Scattered Clouds,290,2013-12-30 06:54:00
2:54 AM,37.0,33.1,86,29.63,10.0,West,9.2,-,N/A,,Partly Cloudy,270,2013-12-30 07:54:00
3:54 AM,36.0,33.1,89,29.66,10.0,WSW,9.2,-,N/A,,Partly Cloudy,250,2013-12-30 08:54:00
4:54 AM,39.0,33.1,79,29.68,10.0,West,12.7,-,N/A,,Partly Cloudy,270,2013-12-30 09:54:00
5:54 AM,39.0,32.0,76,29.71,10.0,West,13.8,21.9,N/A,,Partly Cloudy,270,2013-12-30 10:54:00
6:54 AM,37.9,32.0,79,29.74,10.0,WSW,12.7,-,N/A,,Scattered Clouds,250,2013-12-30 11:54:00
7:54 AM,39.0,32.0,76,29.78,10.0,WSW,15.0,-,N/A,,Scattered Clouds,250,2013-12-30 12:54:00
8:54 AM,39.0,32.0,76,29.80,10.0,WSW,15.0,-,N/A,,Scattered Clouds,240,2013-12-30 13:54:00
9:54 AM,39.9,32.0,73,29.83,10.0,WSW,16.1,23.0,N/A,,Scattered Clouds,240,2013-12-30 14:54:00
10:54 AM,43.0,25.0,49,29.86,10.0,West,24.2,33.4,N/A,,Mostly Cloudy,260,2013-12-30 15:54:00
11:54 AM,39.9,21.9,49,29.86,10.0,West,17.3,26.5,N/A,,Mostly Cloudy,270,2013-12-30 16:54:00
12:54 PM,39.9,19.9,45,29.88,10.0,West,17.3,21.9,N/A,,Scattered Clouds,280,2013-12-30 17:54:00
1:54 PM,39.0,18.0,43,29.90,10.0,West,12.7,-,N/A,,Scattered Clouds,270,2013-12-30 18:54:00
2:54 PM,37.9,15.1,39,29.93,10.0,West,17.3,21.9,N/A,,Mostly Cloudy,280,2013-12-30 19:54:00
3:54 PM,36.0,12.0,37,29.97,10.0,West,12.7,-,N/A,,Mostly Cloudy,280,2013-12-30 20:54:00
4:54 PM,34.0,12.0,40,30.03,10.0,NW,16.1,20.7,N/A,,Scattered Clouds,310,2013-12-30 21:54:00
5:54 PM,32.0,12.0,44,30.06,10.0,NW,10.4,20.7,N/A,,Partly Cloudy,310,2013-12-30 22:54:00
6:54 PM,30.0,12.9,49,30.09,10.0,NW,13.8,-,N/A,,Scattered Clouds,320,2013-12-30 23:54:00
7:54 PM,28.0,10.0,47,30.12,10.0,NNW,12.7,-,N/A,,Partly Cloudy,330,2013-12-31 00:54:00
8:54 PM,25.0,7.0,46,30.14,10.0,North,11.5,-,N/A,,Partly Cloudy,350,2013-12-31 01:54:00
9:54 PM,24.1,9.0,53,30.17,10.0,NNW,12.7,-,N/A,,Clear,340,2013-12-31 02:54:00
10:54 PM,21.9,9.0,58,30.17,10.0,North,6.9,-,N/A,,Clear,360,2013-12-31 03:54:00
11:54 PM,19.0,6.1,57,30.17,10.0,NNW,12.7,-,N/A,,Clear,340,2013-12-31 04:54:00